Location: Erith
(51.4833°N, 0.2000°E)
Time: 19:20:31
(UTC+00:00)

Daily predictions for brighter satellites

Satellite Brightness Start Highest point End
(mag) Time Altitude Azimuth Time Altitude Azimuth Time Altitude Azimuth
Cosmos 2084 Rocket 3.4 16:35:02 10° SW 16:39:11 74° SE 16:43:24 10° NE
SMAP 3.3 16:38:28 10° SE 16:42:55 46° ENE 16:47:23 10° N
Cosmos 540 Rocket 3.7 16:38:25 10° NNW 16:43:22 45° ENE 16:48:17 10° SE
Cosmos 2297 Rocket 4.4 16:45:34 10° NNW 16:46:38 10° N 16:47:42 10° N
Cosmos 1869 4.3 16:45:25 10° SE 16:48:09 21° E 16:50:53 10° NE
SWARM A 4.2 16:44:55 10° N 16:48:15 85° E 16:51:34 10° S
YAOGAN 1 4.1 16:47:23 10° E 16:49:48 15° ENE 16:52:13 10° NNE
IGS 5A 3.3 16:46:00 10° SSE 16:49:57 73° ENE 16:53:56 10° N
Cosmos 1763 Rocket 3.5 16:46:42 10° NNW 16:51:54 60° ENE 16:56:59 10° SE
SL-16 R/B 2.6 16:46:12 10° NNE 16:52:30 77° ESE 16:58:45 10° SSW
SAR-Lupe-5 4.4 16:51:58 10° NNE 16:54:32 52° ESE 16:57:08 10° S
Landsat 7 4.1 16:50:40 10° SE 16:55:04 44° ENE 16:59:30 10° N
Cosmos 1340 Rocket 4.4 16:52:39 10° SW 16:56:11 33° WNW 16:59:42 10° N
Timation 1 Rocket 4.3 16:51:29 10° NNW 16:57:28 68° NE 17:03:24 10° SE
RESURS DK-1 2.2 16:53:35 10° NNW 16:57:36 64° NE 17:01:34 10° SE
Cosmos 1140 Rocket 3.5 16:54:36 10° SSW 16:59:43 68° ESE 17:04:51 10° NNE
CZ-4C R/B 3.0 16:56:07 10° W 17:00:35 41° NNW 17:06:20 10° NE
Aureole 3 Rocket 3.8 16:59:05 10° SE 17:01:14 18° E 17:03:32 10° NE
UNK 3.9 17:00:54 10° NNE 17:05:27 54° E 17:09:58 10° S
Meteor 1-28 Rocket 2.9 17:02:15 10° NNE 17:05:39 89° ESE 17:09:00 10° SSW
Meteor 2-12 Rocket 4.4 17:02:23 10° N 17:08:26 62° ENE 17:14:26 10° SSE
Cosmos 1400 Rocket 4.4 17:08:35 10° ESE 17:10:40 14° E 17:11:08 14° ENE
Cosmos 1536 Rocket 4.5 17:07:14 10° N 17:11:03 27° ENE 17:14:49 10° SE
SJ-12 3.8 17:07:39 10° SSE 17:11:22 56° ENE 17:15:06 10° N
Okean 2 Rocket 4.4 17:15:00 10° SE 17:18:05 19° E 17:20:03 15° NE
Cosmos 1269 Rocket 4.2 17:14:05 10° SSW 17:19:21 79° WNW 17:24:40 10° NNE
CORIOLIS 4.3 17:15:41 10° SSE 17:21:03 81° WSW 17:26:26 10° NNW
IRS-1C 4.1 17:17:12 10° SSE 17:22:32 84° ENE 17:27:54 10° NNW
ATLAS CENTAUR R/B 3.0 17:22:17 10° WNW 17:24:50 19° NNW 17:27:23 10° NNE
SL-12 R/B(2) 4.4 17:18:34 10° SSW 17:26:24 62° ESE 17:35:46 11° NE
COSMO-SKYMED 1 3.8 17:26:49 19° E 17:27:15 19° E 17:30:12 10° SE
Resurs 01 Rocket 3.3 17:30:11 16° NE 17:30:11 16° NE 17:32:15 10° NNE
Thor Agena Rocket 4.4 17:24:38 10° S 17:29:48 55° WSW 17:35:00 10° NNW
Cosmos 1943 Rocket 2.3 17:24:41 10° S 17:30:09 56° ESE 17:35:17 12° NE
Cosmos 1782 Rocket 4.2 17:26:55 10° SSW 17:31:18 60° WNW 17:35:42 10° N
Timation 2 Rocket 4.2 17:24:43 10° SSW 17:31:29 64° ESE 17:38:15 10° NE
Cosmos 841 Rocket 3.9 17:27:35 10° NNW 17:32:34 40° NE 17:37:30 10° SE
Cosmos 2058 2.9 17:29:17 10° N 17:33:12 53° ENE 17:37:06 10° SSE
Cosmos 2233 Rocket 4.3 17:26:55 10° SSW 17:33:13 73° WNW 17:39:34 10° N
Cosmos 1300 Rocket 4.4 17:29:29 10° SSW 17:33:46 51° WNW 17:38:03 10° N
Cosmos 2251 Rocket 3.9 17:29:23 10° S 17:34:20 42° ESE 17:38:36 14° NE
Cosmos 2227 Rocket 4.5 17:34:30 10° NNW 17:35:17 10° N 17:36:05 10° N
BREEZE-M DEB (TANK) 2.9 17:34:35 10° SW 17:37:02 42° SSE 17:39:49 20° E
Cosmos 2082 Rocket 2.1 17:32:09 10° NNW 17:37:48 78° ENE 17:43:24 10° SE
ATLAS 2AS CENTAUR R/B 3.2 17:31:43 10° NW 17:38:07 40° NNE 17:42:14 20° E
Cosmos 1346 Rocket 4.0 17:36:38 10° NNE 17:38:39 20° NE 17:38:39 20° NE
Cosmos 2061 Rocket 4.3 17:34:39 10° SSW 17:40:56 71° WNW 17:47:10 10° N
Cosmos 2278 Rocket 2.2 17:38:01 10° SSW 17:43:37 67° ESE 17:48:32 14° NE
IRAS Rocket 4.3 17:38:48 10° SE 17:44:10 54° ENE 17:49:33 10° N
Cosmos 1602 2.9 17:41:27 10° N 17:44:31 73° E 17:47:34 10° SSE
MOS 1 Rocket 3.0 17:41:53 10° SSE 17:46:13 78° ENE 17:50:48 10° N
Cosmos 1975 Rocket 4.3 17:42:53 10° NNW 17:47:01 44° W 17:51:10 10° SSW
Cosmos 468 Rocket 3.9 17:41:47 10° NNW 17:47:02 89° ENE 17:52:12 10° SSE
AQUARIUS 4.3 17:45:06 10° S 17:49:30 75° WSW 17:53:57 10° NNW
Cosmos 1464 Rocket 4.1 17:44:29 10° SSE 17:50:33 53° E 17:56:35 10° NNE
ARIANE 5 R/B 3.2 17:46:22 10° S 17:51:16 57° WSW 17:56:13 10° NNW
CZ-2D R/B 3.4 17:47:54 10° SSE 17:52:00 62° ENE 17:56:12 10° N
Cosmos 1862 2.9 17:52:01 10° N 17:55:39 66° ENE 17:59:16 10° SSE
USA 215 4.1 17:49:33 10° SSE 17:55:52 50° SW 18:02:13 10° WNW
PSLV R/B 3.5 17:53:54 10° SE 17:57:49 51° ENE 18:01:44 10° N
ARIANE 6 FM1 Upper Stage 4.4 17:55:58 10° NW 17:58:47 18° N 17:59:56 16° NNE
Geosat FO 4.2 17:57:42 16° SSE 17:59:53 71° WSW 18:02:46 10° NW
Cosmos 2151 Rocket 3.6 17:56:40 10° S 18:01:03 58° E 18:05:04 12° NNE
Cosmos 1190 Rocket 4.0 17:56:52 10° S 18:02:03 59° ESE 18:05:26 22° NE
ISS -3.7 18:00:05 10° WSW 18:03:24 63° SSE 18:03:52 55° ESE
Cosmos 2034 Rocket 4.2 17:58:41 10° SSE 18:04:33 46° E 18:10:30 10° NNE
Cosmos 1812 2.2 18:02:21 10° SSW 18:05:14 67° W 18:06:21 33° N
Cosmos 676 Rocket 4.4 18:00:19 10° S 18:05:14 40° ESE 18:06:43 33° ENE
SKYMED 2 3.5 18:03:51 18° NNE 18:07:04 62° ESE 18:11:22 10° S
Okean 1 Rocket 3.3 18:03:35 10° SSE 18:07:45 44° E 18:08:25 41° ENE
Cosmos 1656 Rocket 4.4 18:03:05 10° SSE 18:07:54 31° ESE 18:07:59 31° ESE
Cosmos 220 Rocket 4.1 18:07:22 10° NNW 18:11:16 45° NE 18:11:16 45° NE
Cosmos 407 Rocket 3.9 18:07:21 10° SW 18:12:29 62° WNW 18:17:08 13° NNE
COSMOS 2406 3.1 18:07:45 10° NNW 18:13:28 80° ENE 18:19:02 11° SSE
Sich 1 Rocket 3.7 18:09:05 10° S 18:13:30 52° E 18:14:56 37° NE
USA 281 3.6 18:11:29 31° E 18:13:46 40° NE 18:19:49 10° NNW
Cosmos 1954 Rocket 4.0 18:09:18 10° S 18:14:28 61° ESE 18:16:53 31° NE
Cosmos 1092 Rocket 4.1 18:09:28 10° N 18:15:34 49° ENE 18:21:32 10° SSE
BlueWalker 3 4.4 18:15:32 10° SSE 18:15:39 10° SSE 18:15:39 10° SSE
SL-19 R/B 4.0 18:14:09 10° SSE 18:19:21 85° ENE 18:24:38 10° NNW
Cosmos 2026 Rocket 3.9 18:14:36 10° N 18:20:37 59° ENE 18:26:41 10° SSE
SJ 16-02 1.1 18:19:23 10° SSW 18:23:40 74° ESE 18:24:29 56° NE
Cosmos 1072 Rocket 4.4 18:18:07 10° S 18:24:16 86° W 18:30:25 10° N
Cosmos 44 Rocket 3.3 18:19:32 10° SW 18:24:21 79° NW 18:26:14 38° NNE
YAOGAN 1 2.5 18:20:48 10° SSE 18:25:03 84° WSW 18:29:22 10° NNW
SPOT 1/Viking Rocket 3.9 18:21:42 10° S 18:26:51 67° WSW 18:32:03 10° NNW
Cosmos 2344 3.8 18:23:32 10° NW 18:31:18 82° NE 18:38:34 21° SE
Cosmos 2297 Rocket 4.2 18:30:35 10° N 18:33:09 14° NNE 18:33:09 14° NNE
SL-16 R/B 4.4 18:30:26 10° N 18:35:31 27° NW 18:40:34 10° WSW
Meteor 2-3 Rocket 3.6 18:30:50 10° NNW 18:36:35 83° ENE 18:42:14 10° SSE
Spot 4 Rocket 4.4 18:32:33 10° S 18:37:35 63° WSW 18:42:40 10° NNW
Resurs 1-3 3.9 18:35:20 10° S 18:39:36 65° W 18:43:54 10° NNW
Nadezhda 4 Rocket 4.5 18:36:46 10° NNW 18:42:57 62° W 18:49:04 10° S
Cosmos 1400 Rocket 3.2 18:41:57 10° SSW 18:45:41 57° WNW 18:45:47 57° WNW
Cosmos 304 Rocket 3.6 18:43:45 10° SSW 18:48:30 87° WNW 18:48:47 79° N
Cosmos 371 Rocket 3.2 18:45:32 10° SSW 18:50:20 87° WNW 18:50:35 81° N
CZ-4C R/B 3.7 18:45:44 10° WNW 18:50:24 27° N 18:51:49 25° NNE
Cosmos 1627 Rocket 4.4 18:47:15 10° N 18:53:25 88° W 18:59:36 10° S
Okean 2 Rocket 3.7 18:51:20 10° SSW 18:55:38 54° WNW 18:57:21 33° NNW
COSMO-SKYMED 1 3.2 19:03:10 51° W 19:03:10 51° W 19:06:54 10° SSW
Resurs 01 Rocket 3.1 19:07:36 29° NNW 19:07:36 29° NNW 19:09:48 10° NNW
Geosat 4.3 19:05:27 55° SSW 19:06:18 64° WSW 19:11:18 10° NW
BREEZE-M DEB (TANK) 3.8 19:08:23 10° WSW 19:11:47 71° S 19:11:47 71° S
Cosmos 1943 Rocket 3.6 19:09:06 10° WSW 19:14:10 34° NW 19:16:48 23° N
Cosmos 2227 Rocket 4.4 19:19:10 10° N 19:20:29 13° N 19:20:29 13° N
Cosmos 2278 Rocket 3.8 19:23:11 10° WSW 19:28:09 30° NW 19:30:23 23° N
ATLAS 2AS CENTAUR R/B 2.6 19:22:50 10° NW 19:29:37 82° SW 19:29:41 82° SW
Cosmos 1634 Rocket 4.4 19:29:56 10° SSW 19:42:27 10° N 19:42:28 10° N
Cosmos 2369 Rocket 4.3 19:31:05 10° SSW 19:31:59 15° SSW 19:31:59 15° SSW
USA 281 3.6 19:58:21 58° WSW 19:58:21 58° WSW 20:04:36 10° NNW
SJ 16-02 4.1 19:59:19 10° W 20:01:03 16° WNW 20:01:03 16° WNW
CZ-4C R/B 4.4 20:34:34 10° NW 20:36:46 22° NNW 20:36:46 22° NNW
